Regional Weather Roundup
Issued by NWS State College, PA

Home | Current Version | Previous Version | Text Only | Print | Product List | Glossary Off
Versions: 1 2 3 4 5 6 7 8 9 10 11 12 13 14 15 16 17 18 19 20 21 22 23 24 25 26 27 28 29 30 31 32 33 34 35 36 37 38 39 40 41 42 43 44 45 46 47 48 49 50

000
ASUS41 KCTP 250110
RWRCTP

REGIONAL WEATHER ROUNDUP
NATIONAL WEATHER SERVICE STATE COLLEGE PA
900 PM EDT SUN JUL 24 2016

Note: "fair" indicates few or no clouds below 12,000 feet with no
significant weather and/or obstructions to visibility.

* = STATION THAT DOES NOT REPORT PRECIPITATION /E.G. RAIN...SNOW...ETC/
    THUNDER OR FOG.

PAZ002>004-007>009-013>016-020>023-029>032-250200-
WESTERN PENNSYLVANIA

CITY           SKY/WX    TMP DP  RH WIND       PRES   REMARKS
ERIE           CLOUDY    78  71  79 S6        29.96F
MEADVILLE      CLOUDY    73  68  84 S5        30.01F
FRANKLIN*      CLOUDY    72  68  88 S5        30.05R
NEW CASTLE     FAIR      75  72  90 S3        30.02S
BEAVER COUNTY  NOT AVBL
BUTLER*        CLOUDY    73  72  94 S3        30.06S
PITTSBURGH INT CLOUDY    75  71  87 NE5       30.02F
PITTSBURGH     CLOUDY    73  70  90 CALM      30.02F FOG
INDIANA*       MOCLDY    72  72 100 CALM      30.07S
LATROBE        MOCLDY    72  72 100 SW6       30.05S
WASHINGTON CO* PTCLDY    73  70  88 CALM      30.03S
$$

PAZ004>006-010>012-017>019-024>028-033>037-041-042-045-046-049>053-250200-
CENTRAL PENNSYLVANIA

CITY           SKY/WX    TMP DP  RH WIND       PRES   REMARKS
BRADFORD       CLOUDY    73  66  78 SW5       30.06R
DUBOIS         CLOUDY    71  68  90 W5        30.04F
CLEARFIELD     CLOUDY    72  69  90 SW5       30.03F
JOHNSTOWN      CLOUDY    71  66  84 W3        30.09R
ALTOONA        LGT RAIN  72  69  90 CALM      30.04S
STATE COLLEGE  LGT RAIN  72  70  94 CALM      30.03F
WILLIAMSPORT   CLOUDY    83  65  54 W13       29.96R
SELINSGROVE    RAIN      75  74  96 NW5       29.99R FOG
FT INDIANTOWN  CLOUDY    82  68  63 N2        29.97R
CAPITAL CITY   LGT RAIN  82  70  66 NW12G23   30.00R
HARRISBURG     HVY RAIN  81  74  79 W16G37    30.00R
YORK           CLOUDY    84  68  58 W3        29.98R
$$

PAZ038>040-043-044-047-048-054-055-060>062-067>071-250200-
EASTERN PENNSYLVANIA

CITY           SKY/WX    TMP DP  RH WIND       PRES   REMARKS
SCRANTON       CLOUDY    84  59  42 CALM      29.97R
MOUNT POCONO   MOCLDY    70  61  73 CALM      30.04R
ALLENTOWN      MOCLDY    83  65  54 SW6       29.96R
QUAKERTOWN*    PTCLDY    82  66  57 CALM      29.99R
READING        MOCLDY    85  65  51 S6        29.95R
LANCASTER      CLOUDY    81  67  62 VRB3      29.97R
COATESVILLE    MOCLDY    81  68  65 CALM      30.01R
POTTSTOWN      PTCLDY    84  67  56 S3        29.99R
BLUE BELL      PTCLDY    81  68  65 S5        29.97R
DOYLESTOWN     MOCLDY    82  63  52 S5        29.96R
WILLOW GROVE   NOT AVBL
NORTH PHILA    PTCLDY    87  66  49 SW8       29.98R
PHILADELPHIA   MOCLDY    84  65  52 S8        29.98R
$$



USA.gov is the U.S. government's official web portal to all federal, state and local government web resources and services.